Weather History for KGVL - October, 2012

Change the Weather History Date:

Saturday, October 13, 2012

  Actual Average Record
Temperature  
Mean Temperature 63 °F 62 °F  
Max Temperature 69 °F 72 °F 88 °F (1954)
Min Temperature 57 °F 53 °F 34 °F (1988)
Degree Days  
Heating Degree Days 2 4  
Month to date heating degree days 37  
Since 1 July heating degree days 50  
Cooling Degree Days 0 1  
Month to date cooling degree days 26  
Year to date cooling degree days 1567  
Growing Degree Days 13 (Base 50)    
Moisture  
Dew Point 51 °F    
Average Humidity 68    
Maximum Humidity 90    
Minimum Humidity 51    
Precipitation  
Precipitation 0.00 in 0.12 in 2.19 in (1983)
Month to date precipitation 1.99  
Year to date precipitation 42.92  
Sea Level Pressure  
Sea Level Pressure 30.33 in    
Wind  
Wind Speed 8 mph (ENE)    
Max Wind Speed 13 mph    
Max Gust Speed 20 mph    
Visibility 10 miles    
Events      
T = Trace of Precipitation, MM = Missing Value Source: NWS Daily Summary

Daily Weather History Graph

Daily Weather History Graph

Search for Another Location

Airport or City:

Trip Planner

Search our weather history database for the weather conditions in past years. The results will help you decide how hot, cold, wet, or windy it might be!

Date:

Astronomy

Oct. 13, 2012 Rise Set
Actual Time 7:39 AM EDT 7:02 PM EDT
Civil Twilight 7:14 AM EDT 7:28 PM EDT
Nautical Twilight 6:45 AM EDT 7:57 PM EDT
Astronomical Twilight 6:15 AM EDT 8:26 PM EDT
Moon 5:32 AM EDT (10/13) 5:43 PM EDT (10/13)
Length of Visible Light 12h 13m
Length of Day
11h 23m
Waning Crescent, 5% of the Moon is Illuminated
Oct 13
Waning Crescent
Oct 15
New
Oct 21
First Quarter
Oct 29
Full
Nov 6
Last Quarter

Hourly Weather History & Observations

Time (EDT) Temp. Dew Point Humidity Pressure Visibility Wind Dir Wind Speed Gust Speed Precip Events Conditions
12:53 AM 60.1 °F 57.0 °F 90% 30.28 in 10.0 mi North 3.5 mph - N/A   Clear
1:53 AM 61.0 °F 57.0 °F 87% 30.27 in 10.0 mi NE 4.6 mph - N/A   Overcast
2:53 AM 61.0 °F 55.0 °F 81% 30.29 in 10.0 mi ENE 8.1 mph - N/A   Mostly Cloudy
3:53 AM 61.0 °F 54.0 °F 78% 30.29 in 10.0 mi East 9.2 mph - N/A   Partly Cloudy
4:53 AM 60.1 °F 54.0 °F 80% 30.30 in 10.0 mi East 9.2 mph - N/A   Scattered Clouds
5:53 AM 59.0 °F 53.1 °F 81% 30.32 in 10.0 mi East 8.1 mph - N/A   Clear
6:53 AM 57.9 °F 50.0 °F 75% 30.34 in 10.0 mi ENE 8.1 mph - N/A   Clear
7:53 AM 57.0 °F 48.9 °F 74% 30.36 in 10.0 mi ENE 8.1 mph - N/A   Clear
8:53 AM 59.0 °F 50.0 °F 72% 30.37 in 10.0 mi East 11.5 mph - N/A   Clear
9:53 AM 60.1 °F 48.9 °F 67% 30.39 in 10.0 mi East 11.5 mph 19.6 mph N/A   Clear
10:53 AM 62.1 °F 50.0 °F 65% 30.40 in 10.0 mi East 12.7 mph - N/A   Clear
11:53 AM 63.0 °F 48.9 °F 60% 30.39 in 10.0 mi ESE 11.5 mph - N/A   Clear
12:53 PM 66.0 °F 48.9 °F 54% 30.36 in 10.0 mi East 11.5 mph - N/A   Clear
1:53 PM 66.9 °F 48.9 °F 52% 30.34 in 10.0 mi East 6.9 mph 16.1 mph N/A   Clear
2:53 PM 68.0 °F 50.0 °F 52% 30.32 in 10.0 mi ENE 9.2 mph 16.1 mph N/A   Clear
3:53 PM 68.0 °F 50.0 °F 52% 30.31 in 10.0 mi ESE 9.2 mph - N/A   Clear
4:53 PM 69.1 °F 50.0 °F 51% 30.30 in 10.0 mi East 8.1 mph - N/A   Clear
5:53 PM 66.9 °F 50.0 °F 54% 30.29 in 10.0 mi East 9.2 mph - N/A   Clear
6:53 PM 63.0 °F 51.1 °F 65% 30.30 in 10.0 mi ENE 4.6 mph - N/A   Clear
8:53 PM 59.0 °F 48.0 °F 67% 30.31 in 10.0 mi ENE 6.9 mph - N/A   Clear
9:53 PM 57.9 °F 48.0 °F 70% 30.31 in 10.0 mi ENE 8.1 mph - N/A   Clear
10:53 PM 57.0 °F 46.9 °F 69% 30.32 in 10.0 mi East 8.1 mph - N/A   Clear